Flag for Bermuda Weather past 2 weeks in Hamilton, Bermuda

Now
75 °F

Partly sunny.


Feels Like: 77 °F
Forecast: 72 / 77 °F
Wind: 26 mph from East

Location: Bermuda

Current Time: May 28, 2015 at 11:51:44 AM

Latest Report: May 28, 2015 at 10:55 AM


Visibility: N/A

Pressure: 30.21 "Hg

Humidity: 74%

Dew point: 66 °F

Location of HamiltonLocation

Historic Weather in Hamilton — Graph

°F

Hamilton temperature yesterday

Maximum temperature yesterday: 77 °F (at 2:55 PM)
Minimum temperature yesterday: 70 °F (at 12:55 AM)
Average temperature yesterday: 73 °F

Past Weeks' High & Low Weather Summary

 TemperatureHumidityPressure
High79 °F (May 21, 12:55 PM)94% (May 22, 3:55 AM)30.36 "Hg (May 22, 3:55 AM)
Low66 °F (May 16, 4:55 AM)50% (May 17, 9:55 AM)29.92 "Hg (May 19, 2:55 AM)
Average72 °F71%30.17 "Hg
* Reported May 13 9:55 AM — May 28 9:55 AM, Hamilton, Weather by CustomWeather, © 2015

Note: Actual official high and low records may vary slightly from our data, if they occured in-between our weather recording intervals... More about our weather records

Advertising

Hamilton weather history for previous 24 hours

 ConditionsComfort  
Time TempWeatherWind HumidityBarometerVisibility
9:55 AM
Thu, May 28
73 °FPartly sunny.25 mph78%30.18 "HgN/A
8:55 AM75 °FBroken clouds.24 mph74%30.21 "HgN/A
7:55 AM73 °FPassing clouds.23 mph78%30.18 "HgN/A
6:55 AM72 °FPassing clouds.24 mph78%30.18 "HgN/A
5:55 AM72 °FPassing clouds.22 mph83%30.18 "HgN/A
4:55 AM72 °FPassing clouds.22 mph83%30.18 "HgN/A
3:55 AM72 °FPassing clouds.20 mph83%30.18 "HgN/A
2:55 AM72 °FPassing clouds.18 mph83%30.18 "HgN/A
1:55 AM72 °FPassing clouds.21 mph83%30.18 "HgN/A
12:55 AM72 °FPassing clouds.21 mph83%30.21 "HgN/A
11:55 PM
Wed, May 27
73 °FPassing clouds.18 mph78%30.21 "HgN/A
10:55 PM73 °FPassing clouds.18 mph78%30.21 "HgN/A
9:55 PM73 °FPartly cloudy.21 mph78%30.21 "HgN/A
8:55 PM73 °FPartly sunny.18 mph78%30.21 "HgN/A
7:55 PM73 °FPartly sunny.20 mph78%30.21 "HgN/A
6:55 PM73 °FPartly sunny.18 mph78%30.18 "HgN/A
5:55 PM77 °FPartly sunny.18 mph69%30.18 "HgN/A
4:55 PM75 °FBroken clouds.24 mph74%30.18 "HgN/A
3:55 PM77 °FPartly sunny.23 mph69%30.18 "HgN/A
2:55 PM77 °FPartly sunny.20 mph69%30.21 "HgN/A
1:55 PM75 °FScattered clouds.21 mph74%30.21 "HgN/A
12:55 PM75 °FScattered showers. Partly sunny.26 mph69%30.21 "HgN/A
11:55 AM75 °FBroken clouds.23 mph74%30.24 "HgN/A
Weather by CustomWeather, © 2015

See weather overviewHow to use our weather pages